TimeEDT,TemperatureF,Dew PointF,Humidity,Sea Level PressureIn,VisibilityMPH,Wind Direction,Wind SpeedMPH,Gust SpeedMPH,PrecipitationIn,Events,Conditions,WindDirDegrees,DateUTC
12:54 AM,63.0,57.0,81,29.89,10.0,SW,5.8,-,N/A,,Overcast,220,2013-09-08 04:54:00
1:54 AM,64.0,55.9,75,29.87,10.0,SW,4.6,-,N/A,,Overcast,220,2013-09-08 05:54:00
2:54 AM,63.0,55.9,78,29.86,10.0,SSW,3.5,-,N/A,,Overcast,210,2013-09-08 06:54:00
3:54 AM,62.1,57.0,84,29.84,10.0,SW,5.8,-,0.00,,Overcast,230,2013-09-08 07:54:00
4:54 AM,60.1,57.0,90,29.84,10.0,SW,5.8,-,N/A,,Overcast,230,2013-09-08 08:54:00
5:54 AM,59.0,57.0,93,29.83,10.0,Calm,Calm,-,N/A,,Clear,0,2013-09-08 09:54:00
6:54 AM,57.9,55.9,93,29.84,10.0,SW,3.5,-,N/A,,Mostly Cloudy,230,2013-09-08 10:54:00
7:22 AM,60.8,57.2,88,29.85,10.0,WSW,5.8,-,N/A,,Mostly Cloudy,240,2013-09-08 11:22:00
7:54 AM,62.1,57.0,84,29.85,10.0,WSW,4.6,-,N/A,,Mostly Cloudy,240,2013-09-08 11:54:00
8:27 AM,64.4,57.2,77,29.85,10.0,SW,3.5,-,N/A,,Scattered Clouds,220,2013-09-08 12:27:00
8:54 AM,66.0,57.9,75,29.84,10.0,South,6.9,-,N/A,,Partly Cloudy,190,2013-09-08 12:54:00
9:54 AM,70.0,60.1,71,29.85,10.0,Variable,3.5,-,N/A,,Scattered Clouds,0,2013-09-08 13:54:00
10:15 AM,73.4,62.6,69,29.84,10.0,South,5.8,-,N/A,,Mostly Cloudy,170,2013-09-08 14:15:00
10:54 AM,73.0,62.1,68,29.85,10.0,WNW,9.2,17.3,N/A,,Overcast,300,2013-09-08 14:54:00
11:36 AM,75.2,62.6,65,29.85,10.0,NW,13.8,23.0,N/A,,Scattered Clouds,310,2013-09-08 15:36:00
11:54 AM,77.0,62.1,60,29.85,10.0,NNW,13.8,-,N/A,,Partly Cloudy,330,2013-09-08 15:54:00
12:54 PM,77.0,60.1,56,29.85,10.0,NW,15.0,19.6,N/A,,Scattered Clouds,310,2013-09-08 16:54:00
1:54 PM,77.0,57.0,50,29.86,10.0,NNW,11.5,21.9,N/A,,Partly Cloudy,330,2013-09-08 17:54:00
2:54 PM,77.0,50.0,39,29.87,10.0,NNW,17.3,25.3,N/A,,Clear,330,2013-09-08 18:54:00
3:54 PM,75.0,44.1,33,29.89,10.0,NNW,11.5,20.7,N/A,,Clear,330,2013-09-08 19:54:00
4:54 PM,73.9,43.0,33,29.91,10.0,NW,11.5,-,N/A,,Clear,310,2013-09-08 20:54:00
5:54 PM,71.1,46.0,41,29.94,10.0,North,-9999.0,-,N/A,,Unknown,0,2013-09-08 21:54:00
6:54 PM,66.9,46.0,47,29.97,10.0,NNW,6.9,-,N/A,,Clear,330,2013-09-08 22:54:00
7:54 PM,63.0,46.0,54,30.01,10.0,NNW,4.6,-,N/A,,Clear,330,2013-09-08 23:54:00
8:54 PM,60.1,45.0,57,30.05,10.0,NNW,8.1,-,N/A,,Clear,340,2013-09-09 00:54:00
9:54 PM,55.0,45.0,69,30.08,10.0,North,3.5,-,N/A,,Clear,350,2013-09-09 01:54:00
10:54 PM,52.0,46.0,80,30.10,10.0,Calm,Calm,-,N/A,,Clear,0,2013-09-09 02:54:00
11:54 PM,48.9,46.0,90,30.11,10.0,Calm,Calm,-,N/A,,Clear,0,2013-09-09 03:54:00